Regional Weather Roundup
Issued by NWS

Home | Current Version | Previous Version | Graphics & Text | Print | Product List | Glossary On
Versions: 1 2 3 4 5 6 7 8 9 10 11 12 13 14 15 16 17 18 19 20 21 22 23 24 25 26 27 28 29 30 31 32 33 34 35 36 37 38 39 40 41 42 43 44 45 46 47 48
000
ASUS45 KBOU 231907
RWRCO

WEATHER ROUNDUP FOR COLORADO
NATIONAL WEATHER SERVICE DENVER/BOULDER CO
100 PM MDT WED JUL 23 2014

NOTE: "FAIR" INDICATES FEW OR NO CLOUDS BELOW 12000 FEET WITH NO
SIGNIFICANT WEATHER AND/OR OBSTRUCTIONS TO VISIBILITY.

COZ001>005-013-030-031-232000-
...NORTHWEST COLORADO...

CITY           SKY/WX    TMP DP  RH WIND       PRES   REMARKS
CRAIG          PTSUNNY   88  38  17 W9        30.33F
HAYDEN         MOSUNNY   90  39  17 NW12      30.35F
MEEKER         MOSUNNY   93  35  13 SW12G26   30.34F
MOUNT WERNER   NOT AVBL
STEAMBOAT SPGS MOSUNNY   87  41  20 SW5       30.39F
WALDEN         SUNNY     79  32  18 SE7       30.50F
$$

COZ006>008-011-232000-
...WEST CENTRAL VALLEYS...

CITY           SKY/WX    TMP DP  RH WIND       PRES   REMARKS
GRAND JUNCTION MOSUNNY   94  39  14 CALM      30.21F
MONTROSE       SUNNY     96  40  14 VRB5      30.30F
EAGLE          MOSUNNY   90  39  17 CALM      30.36F
RIFLE          MOSUNNY   94  38  14 NW8       30.27F
DELTA          SUNNY     98  38  12 S7        30.26F
NUCLA          SUNNY     91  36  14 NW7       30.35F
$$

COZ017>023-064>068-232000-
...SOUTHWEST COLORADO...

CITY           SKY/WX    TMP DP  RH WIND       PRES   REMARKS
DURANGO        SUNNY     87  34  15 SE9       30.41F
CORTEZ         SUNNY     93  42  17 S14G21    30.34F
PAGOSA SPRINGS SUNNY     84  32  15 S7        30.50F
TELLURIDE      SUNNY     81  37  21 W10       30.59S
WOLF CREEK PAS NOT AVBL
$$

COZ009-010-012-014-032>034-037-058>063-232000-
...CENTRAL COLORADO...

CITY           SKY/WX    TMP DP  RH WIND       PRES   REMARKS
ASPEN          MOSUNNY   83  39  21 SW6       30.46R
BUENA VISTA    MOSUNNY   79  35  20 S7        30.52S
COPPER MTN     CLOUDY    68  28  22 W24       30.87S
BERTHOUD PASS  CLOUDY    55  41  58 E10       30.92F
COTTONWOOD PAS TSTM      64  43  45 SE18G26   30.68F
GUNNISON       MOSUNNY   84  37  18 SW7       30.50F
KREMMLING      SUNNY     90  23   9 SW6       30.43F
LEADVILLE      MOSUNNY   76  31  19 S12G18    30.65F
MONARCH PASS   PTSUNNY   63  36  36 E10       30.97F
SALIDA         MOSUNNY  N/A N/A N/A SE9G16    30.54F
SUNLIGHT       MOSUNNY   79  43  27 CALM      30.77F
WILKERSON PASS SUNNY     73  32  21 SW6       30.85F
$$

COZ069>075-232000-
...SAN LUIS VALLEY/SANGRE DE CRISTO MOUNTAINS...

CITY           SKY/WX    TMP DP  RH WIND       PRES   REMARKS
ALAMOSA        SUNNY     82  39  21 VRB5      30.50F
LA VETA PASS   SUNNY     75  37  25 E8G16     30.74S
SAGUACHE       SUNNY     82  32  16 S9G21     30.53F
$$

COZ035-036-038>040-232000-
...NORTHERN COLORADO FRONT RANGE...

CITY           SKY/WX    TMP DP  RH WIND       PRES   REMARKS
DENVER INTL AP MOSUNNY   87  59  38 W10       30.33F
DMNS CITY PARK   N/A     79  61  53 NW6       30.33F
AURORA         MOSUNNY   81  63  54 NW9       30.35F
FRONT RANGE AP MOSUNNY   91  54  27 E6        30.34F
ERIE MUNI ARPT SUNNY     79  59  50 CALM      30.32F
BOULDER MUN AP MOSUNNY   79  59  50 S3        30.34F
CENTENNIAL     MOSUNNY   81  62  52 N10       30.36F
BROOMFIELD     MOSUNNY   79  61  53 N7        30.37
FORT COLLINS   MOSUNNY   75  63  64 W8        30.33F
LONGMONT       SUNNY     83  61  46 NE6       30.34F
$$

COZ041-046-047-076>085-087-088-232000-
...PIKES PEAK/PALMER DIVIDE AND SOUTHERN FOOTHILLS...

CITY           SKY/WX    TMP DP  RH WIND       PRES   REMARKS
COLO. SPRINGS  MOSUNNY   87  52  29 SE13      30.41F
A. F. ACADEMY  SUNNY     85  50  30 SE14G24   30.42F
ELLICOTT       SUNNY     86  53  32 S14G20    30.41S
FALCON         SUNNY     83  51  31 SE10G18   30.48F
FORT CARSON    SUNNY     88  53  30 SE10G21   30.38F
LIMON          SUNNY     90  53  28 S17G26    30.35F
MONUMENT HILL  SUNNY     82  46  28 S17G26    30.45F
TRINIDAD       SUNNY     90  47  22 MISG      30.36F
$$

COZ042>045-048>051-090-091-232000-
...NORTHEAST COLORADO...

CITY           SKY/WX    TMP DP  RH WIND       PRES   REMARKS
GREELEY ARPT   SUNNY     81  63  54 E7        30.31F
AKRON          MOSUNNY   77  64  64 SE22G37   30.33F
BURLINGTON     MOSUNNY   78  65  63 SE20G30   30.34F
WRAY             N/A     89  56  33 SE21G28   30.28F
STERLING       MOSUNNY   82  68  61 S18G28    30.29F
HOLYOKE        MOSUNNY   86  63  45 S14       30.28F
FORT MORGAN    SUNNY     81  64  55 SE16G24   30.31F
$$

COZ086-089-092>099-232000-
...SOUTHEAST COLORADO...

CITY           SKY/WX    TMP DP  RH WIND       PRES   REMARKS
PUEBLO         SUNNY     92  52  25 SE9       30.28F
LA JUNTA       SUNNY     93  59  31 VRB5      30.27F
LAMAR          MOSUNNY   97  60  29 MISG      30.22F
SPRINGFIELD      N/A     92  55  28 SE8       30.28F
$$



USA.gov is the U.S. government's official web portal to all federal, state and local government web resources and services.